Theta_e
295 295 295 295 295 296 296 296 297 298 300 301 303 308 310 314 316 319 320 320 321 320 319 319 319 319 318 318 317 317 316 315 300 294 292 291 290 289 287 289 290 290 291
295 295 295 295 295 295 295 296 296 297 299 300 303 307 310 313 316 319 320 319 319 318 318 318 318 317 315 315 315 314 314 314 308 295 290 289 289 287 287 289 290 290 291
295 295 295 295 294 294 295 296 296 297 298 301 305 307 309 312 315 316 317 317 316 315 314 314 312 312 311 312 313 313 312 312 310 303 292 290 288 287 287 288 289 290 291
295 295 295 295 295 294 295 296 297 298 299 302 304 306 309 311 312 313 314 314 313 312 310 310 310 311 309 309 309 309 309 308 306 301 292 288 287 287 287 287 288 290 291
295 295 295 296 295 295 295 296 297 299 300 301 303 305 306 308 309 311 311 310 310 308 307 308 307 307 306 305 303 302 303 303 300 296 290 288 286 287 287 288 288 290 291
295 295 294 295 296 296 295 295 296 298 299 301 302 304 305 307 307 308 309 307 306 305 303 303 301 299 299 299 297 296 297 299 297 293 290 288 287 288 288 288 288 289 289
295 295 294 295 297 297 297 297 296 295 297 298 300 302 303 303 305 306 306 306 305 303 302 299 299 294 294 293 292 293 293 292 291 291 290 289 288 288 288 287 287 289 290
294 295 294 295 296 297 297 297 298 297 296 296 296 298 300 299 301 302 303 303 302 300 298 296 295 293 292 291 290 290 290 290 291 291 290 289 289 288 288 288 288 289 288
294 294 294 293 295 295 296 297 296 298 299 298 296 296 298 297 298 297 298 298 297 295 294 293 292 291 290 289 290 290 288 289 288 289 289 288 288 288 288 288 287 288 287
294 293 291 291 292 293 295 295 295 295 295 296 297 297 296 295 294 295 296 296 295 292 291 290 290 289 289 289 289 289 288 287 287 287 287 287 287 287 287 287 288 289 287
293 294 292 290 290 292 292 293 294 294 294 294 295 294 294 294 293 294 294 293 292 290 290 289 289 288 288 288 288 288 288 287 286 286 286 286 286 286 287 287 287 288 288
292 293 293 291 290 290 291 291 292 292 293 293 292 292 291 291 291 291 290 290 290 290 289 289 288 288 288 288 287 287 288 287 287 286 285 286 286 286 286 286 287 287 287
290 291 291 291 290 289 289 289 291 291 290 291 291 292 291 291 290 290 291 291 290 289 289 288 287 287 288 287 287 287 286 286 286 285 285 285 285 285 286 287 287 286 286
291 290 290 289 289 289 289 288 288 289 290 291 290 290 290 290 290 290 289 289 288 289 288 288 287 287 287 286 285 286 285 286 286 286 285 285 285 285 285 286 286 285 285
290 290 289 289 289 289 288 288 288 288 288 289 291 291 290 291 292 290 290 290 288 288 287 287 286 285 284 284 283 283 284 284 285 285 285 285 285 284 284 285 285 285 285
290 290 290 289 289 288 288 288 288 288 287 287 288 288 289 289 289 289 289 288 288 287 286 286 285 284 283 283 283 283 283 283 285 285 285 285 285 284 284 283 283 284 285
292 292 290 289 289 289 288 288 288 289 288 288 287 287 287 287 287 287 287 287 287 285 285 285 284 284 283 283 283 284 284 285 285 284 283 284 284 283 282 282 282 283 283
294 292 291 291 290 289 289 289 289 288 288 289 289 288 288 287 287 286 286 285 285 285 284 284 284 284 285 285 284 284 284 284 284 284 283 284 283 283 282 281 282 282 282
294 293 292 291 291 290 290 289 289 289 288 288 289 288 289 288 287 286 285 285 285 284 284 284 285 286 286 286 286 286 285 284 284 284 284 284 284 283 282 282 282 282 282
294 293 292 291 291 290 289 289 288 288 288 288 288 289 289 287 285 285 285 284 284 284 285 285 286 286 286 286 286 285 285 284 284 284 283 283 283 283 282 282 282 282 281
293 293 292 291 290 290 289 289 288 288 287 288 288 289 289 289 288 287 286 285 285 285 285 285 286 286 286 286 286 285 285 284 284 284 284 283 283 282 283 282 282 281 281
292 292 291 290 290 289 288 288 288 288 287 287 288 288 288 288 288 287 287 286 286 286 286 286 286 286 286 286 286 286 286 285 285 284 284 283 282 282 282 282 281 281 280
291 290 289 289 289 288 288 288 288 288 287 287 287 287 287 287 287 287 287 286 286 286 286 286 286 286 286 286 286 286 286 286 286 285 284 284 282 281 281 281 281 280 279
288 288 287 287 287 287 287 287 287 287 287 287 287 286 286 286 286 286 286 286 286 285 285 285 286 286 285 285 285 285 286 286 286 285 285 284 284 282 281 280 280 280 280
286 286 286 286 286 286 286 286 286 286 286 286 285 285 285 285 285 285 285 285 285 284 284 284 284 284 284 284 284 284 284 284 284 284 284 284 283 283 281 280 280 279 279
284 284 284 284 285 285 285 285 285 285 285 285 285 285 285 285 285 285 284 285 284 284 284 284 284 284 284 284 283 283 283 283 284 283 283 282 282 281 280 280 280 279 279
Wind_Speed
6 7 7 8 8 7 5 4 4 5 7 5 4 3 4 3 5 8 10 11 11 9 8 7 5 5 8 4 4 5 5 8 9 5 6 9 8 7 8 10 11 14 17
7 7 8 8 7 4 4 4 3 2 3 3 1 2 3 4 6 7 9 8 11 9 6 5 4 5 6 4 4 8 9 7 9 11 13 9 10 8 10 11 12 14 15
4 6 8 9 7 7 6 4 3 3 3 2 4 4 5 5 6 7 7 8 9 8 8 7 7 6 7 8 7 7 9 10 8 12 12 11 12 11 12 12 11 13 15
4 6 7 8 10 9 7 7 6 6 6 5 6 7 8 8 9 10 10 10 11 10 11 11 10 8 6 6 6 6 8 8 10 16 12 12 11 14 13 15 14 14 17
4 6 8 8 9 9 9 10 9 9 9 9 9 10 10 11 10 9 10 12 13 14 13 11 10 7 7 6 6 6 6 10 14 15 15 10 11 16 13 11 18 17 17
5 6 6 7 7 9 11 12 12 12 12 12 13 13 12 13 11 11 12 14 14 13 13 11 9 8 7 5 5 6 8 9 12 14 11 15 15 13 15 19 20 11 5
7 7 7 8 9 10 11 12 13 13 13 14 14 14 15 14 12 12 11 12 12 11 10 10 10 10 9 8 8 8 9 10 9 8 17 15 16 15 17 21 16 8 10
5 4 4 5 8 10 9 10 11 11 13 14 13 12 13 13 11 9 9 10 10 10 9 8 8 8 7 8 9 12 12 10 7 10 11 12 11 15 14 14 16 17 15
7 5 4 4 5 7 8 8 9 9 10 11 12 11 10 10 10 9 8 8 9 9 8 6 6 7 8 8 8 11 12 13 12 12 11 12 15 15 12 16 21 22 7
8 6 4 4 4 6 6 7 7 8 9 9 9 7 8 8 7 7 6 6 7 7 6 5 6 6 7 6 7 9 13 13 12 13 13 12 11 15 16 15 17 13 8
9 8 6 5 5 5 5 5 7 8 8 9 8 7 6 6 6 7 7 7 6 8 7 7 6 7 6 7 8 8 8 13 14 13 12 11 11 11 13 13 14 11 11
11 11 10 8 7 6 5 5 7 8 10 10 9 9 7 6 5 6 5 5 6 7 8 8 8 9 8 7 7 7 7 12 14 13 11 10 10 10 10 8 10 11 11
14 14 12 11 10 9 8 7 8 8 8 8 9 10 10 9 8 8 9 9 9 9 8 8 7 8 9 9 8 10 12 13 12 12 11 11 10 9 10 10 10 10 8
16 16 15 15 15 14 13 12 12 12 12 11 11 10 9 9 11 11 11 11 10 10 10 11 10 9 9 7 10 12 15 15 15 13 12 11 10 11 12 12 11 11 8
18 18 19 18 18 17 16 16 16 16 15 16 15 14 14 15 15 13 13 13 13 11 12 13 14 14 12 12 12 13 13 13 15 17 17 16 15 16 16 15 14 13 10
22 22 23 22 21 20 20 19 19 19 18 18 18 17 16 17 13 14 15 15 15 16 17 19 18 18 18 18 17 17 18 19 18 18 20 20 21 22 23 21 19 18 17
28 27 25 25 24 23 23 23 23 19 19 22 22 21 20 17 16 14 15 16 16 18 18 20 19 19 18 19 20 21 23 22 20 19 21 24 22 21 22 23 23 21 21
28 29 27 26 26 26 25 26 25 24 24 23 21 23 25 23 22 19 18 14 16 21 19 19 21 22 23 22 22 22 21 20 20 21 22 23 24 24 24 25 25 26 25
25 27 27 26 26 26 26 25 25 27 28 28 25 21 20 21 24 22 20 25 22 22 24 24 27 27 26 26 26 26 25 25 25 25 26 25 25 28 30 30 29 29 27
20 22 22 23 24 25 26 26 27 28 29 29 28 30 24 19 22 25 27 28 26 30 31 31 30 29 29 27 27 27 28 29 29 29 31 29 28 29 31 31 31 31 32
17 18 20 22 23 25 26 27 27 26 26 27 30 27 26 26 29 30 31 31 32 30 32 34 35 34 31 29 28 27 28 30 31 32 32 33 32 32 32 32 32 32 32
14 15 16 19 21 22 25 25 25 25 25 26 26 23 21 24 26 28 30 32 34 35 34 33 34 34 34 32 30 29 31 32 32 31 32 32 33 33 34 34 33 33 31
13 14 15 17 18 19 20 22 22 22 23 24 22 20 19 23 26 26 27 27 28 28 29 30 32 33 33 33 32 31 32 33 32 31 31 29 30 31 31 32 33 31 31
7 9 12 14 15 18 19 19 19 20 21 20 19 18 18 19 20 21 21 20 21 23 25 26 27 29 27 30 31 32 33 32 31 30 29 30 30 30 30 31 32 32 30
6 8 11 13 12 15 17 17 16 16 16 16 16 16 15 13 14 16 16 16 17 17 17 18 21 23 24 25 27 27 29 28 29 29 30 32 32 31 30 31 30 28 29
5 5 7 8 10 11 12 12 12 12 12 12 11 11 10 10 10 10 11 12 14 14 14 14 15 15 17 19 22 23 24 28 29 28 29 31 32 31 30 32 31 30 29
Wind_Direction
37 40 30 22 18 16 4 344 344 6 350 355 3 31 5 81 148 168 208 203 190 168 175 192 178 165 224 225 213 195 172 162 116 111 128 137 120 103 100 97 82 67 67
34 29 34 37 33 19 10 1 352 41 4 353 17 55 48 66 112 129 136 153 162 165 161 172 176 174 169 156 149 147 137 148 142 138 150 152 146 135 116 109 90 77 77
66 48 30 30 35 35 36 29 37 66 82 114 108 99 84 94 125 150 154 160 148 144 147 151 141 137 127 128 139 151 159 162 166 159 147 162 152 149 126 116 100 83 81
79 70 57 38 32 29 36 56 65 80 95 99 99 106 107 119 124 128 133 133 128 127 128 132 133 134 137 142 148 151 157 153 149 145 132 147 150 155 134 127 107 98 91
96 76 68 57 43 44 50 56 70 82 84 91 98 101 103 107 110 129 132 134 127 127 123 122 125 137 135 132 127 130 138 140 140 138 135 148 142 157 156 140 116 104 93
141 110 105 100 81 68 63 62 73 82 88 95 101 107 109 102 113 120 127 129 129 126 118 105 100 104 111 114 121 133 138 143 146 147 155 154 162 169 165 153 141 136 107
165 148 130 108 103 87 81 81 75 73 81 86 91 98 100 104 112 118 124 126 128 125 119 117 114 113 114 126 143 149 151 155 164 176 165 161 161 167 166 172 174 151 134
185 170 146 124 108 108 96 93 93 90 87 86 85 92 104 109 114 120 130 130 128 122 124 127 125 131 135 140 143 135 133 135 138 150 161 153 156 152 162 169 172 153 145
199 205 189 179 150 126 117 113 107 107 107 100 97 99 106 112 119 118 120 124 123 121 121 131 136 139 151 149 154 139 125 117 134 147 149 150 158 157 156 158 153 150 148
205 202 204 190 184 173 153 134 127 122 117 118 117 113 116 115 117 118 131 144 142 138 136 131 142 152 152 144 152 147 138 133 134 134 135 145 157 173 164 163 163 172 142
218 205 205 199 193 200 186 171 156 143 136 133 132 131 133 139 148 157 160 163 166 153 152 149 146 151 147 144 153 152 150 150 145 146 146 145 151 164 185 194 196 194 184
224 221 218 209 205 212 217 198 184 181 172 166 159 155 162 167 167 170 170 165 169 177 176 173 171 171 169 169 171 175 175 171 165 164 165 163 164 169 177 177 193 206 216
224 227 228 230 227 224 228 232 222 210 211 203 192 187 184 190 194 197 198 199 195 192 187 185 181 179 180 180 178 181 175 179 181 181 184 187 181 174 167 165 170 168 166
219 224 226 232 235 234 231 232 237 236 231 226 225 225 222 219 214 212 213 207 200 196 194 186 186 188 184 190 180 193 188 193 197 200 207 213 207 197 186 181 177 163 160
223 224 227 231 236 241 245 248 248 249 248 252 252 243 233 230 231 231 230 222 214 201 191 192 192 193 190 200 202 208 209 207 208 204 210 217 215 210 205 204 203 195 195
230 229 230 233 235 240 246 249 252 256 252 252 254 253 251 251 252 240 233 230 221 211 203 207 211 214 210 207 211 219 223 222 221 215 218 220 218 216 214 211 213 212 213
234 238 237 237 237 238 242 247 254 252 253 253 251 252 252 250 249 235 231 226 217 201 220 224 222 224 230 228 223 219 224 230 230 226 228 227 227 224 221 223 221 220 220
239 243 244 244 244 243 243 247 252 254 253 252 254 253 251 250 249 243 235 218 210 217 223 231 235 239 240 245 247 246 244 236 231 232 232 231 228 228 224 228 228 228 226
240 243 243 246 249 252 252 249 250 253 256 257 258 250 249 250 247 242 232 227 218 219 223 228 235 239 242 244 244 245 248 249 248 240 238 239 232 228 231 233 234 234 231
241 247 249 247 247 247 247 247 249 248 251 253 253 252 248 234 225 226 229 228 232 238 240 244 247 250 250 251 251 249 247 246 242 243 247 245 241 237 236 238 237 234 231
246 243 245 249 248 249 249 247 246 245 245 247 254 257 254 243 241 238 237 233 236 240 246 251 254 255 255 254 252 251 250 251 249 248 245 248 247 244 244 244 244 241 241
258 258 253 250 254 253 252 253 253 250 247 248 255 255 250 247 244 246 249 251 252 256 259 260 261 261 260 257 255 253 253 252 252 250 251 249 249 247 246 246 244 244 240
262 262 262 262 259 258 255 255 256 257 256 259 261 258 249 245 249 252 253 257 261 264 265 264 265 266 266 264 262 261 259 261 261 260 254 248 247 243 243 239 238 235 231
270 269 267 268 270 265 258 255 255 256 258 261 261 260 257 255 258 259 264 265 266 266 266 268 269 269 269 269 269 267 265 264 266 265 263 258 253 247 236 234 233 231 230
293 282 276 271 268 267 268 263 259 258 260 259 259 260 260 255 257 265 269 272 274 274 272 272 272 272 272 266 265 263 265 271 270 268 266 263 259 254 243 235 231 227 227
313 298 281 281 280 273 269 272 273 270 262 259 261 257 258 263 266 274 277 279 280 278 282 283 280 277 278 276 273 270 267 268 271 272 267 264 260 253 244 236 231 224 223